Location: Pianadetto
(44.4000°N, 10.1000°E)
Time: 23:00:53
(UTC+00:00)

Cosmos 614 Rocket - Pass Details

Date: 26 May 2022
Orbit: 732 x 764 km, 74.1° (Epoch: 02 July)

Event Time Altitude Azimuth Distance (km) Brightness Sun altitude
Rises 01:55:57 0° 336° (NNW) 3,216 7.6 -15.1°
Reaches altitude 10° 01:58:20 10° 333° (NNW) 2,291 6.8 -14.8°
Maximum altitude 02:03:27 63° 254° (WSW) 849 4.0 -14.2°
Drops below altitude 10° 02:08:35 10° 174° (S) 2,289 6.1 -13.6°
Enters shadow 02:09:15 - 173° (S) 2,548 6.3 -13.6°
